GW2702 Weather Reports


time (UTC)temp
F
wind
direction
speed
knots
gust
knots
rain 1hr
in
rain 24hr
in
rain mn
in
humidity
%
barometer
mb
20260506102738 50 170 0.0 0.0 0.00 0.00 0.00 97
20260506102236 50 171 0.0 0.0 0.00 0.00 0.00 97
20260506101733 50 175 0.0 0.0 0.00 0.00 0.00 97
20260506101229 50 170 0.0 0.0 0.00 0.00 0.00 97
20260506100727 50 183 0.0 0.0 0.00 0.00 0.00 96
20260506100226 50 172 0.0 0.0 0.00 0.00 0.00 97
20260506095724 50 172 0.0 0.0 0.00 0.00 0.00 96
20260506095220 50 171 0.0 0.0 0.00 0.00 0.00 96
20260506094717 50 172 0.0 0.0 0.00 0.00 0.00 96
20260506094215 50 172 0.0 0.0 0.00 0.00 0.00 96
20260506093714 50 169 0.0 0.0 0.00 0.00 0.00 96
20260506093210 50 173 0.0 0.0 0.00 0.00 0.00 96
20260506092708 50 174 0.0 0.0 0.00 0.00 0.00 95
20260506092205 51 170 0.0 0.0 0.00 0.00 0.00 95
20260506091703 51 171 0.0 0.0 0.00 0.00 0.00 95
20260506091200 51 170 0.0 0.0 0.00 0.00 0.00 95
20260506090658 51 171 0.0 0.0 0.00 0.00 0.00 95
20260506090154 51 171 0.0 0.0 0.00 0.00 0.00 95
20260506085651 51 169 0.0 0.0 0.00 0.00 0.00 95
20260506085147 51 179 0.0 0.0 0.00 0.00 0.00 95
20260506084644 51 172 0.0 0.0 0.00 0.00 0.00 94
20260506084141 51 172 0.0 0.0 0.00 0.00 0.00 94
20260506083638 51 177 0.0 0.0 0.00 0.00 0.00 94
20260506083136 51 167 0.0 0.0 0.00 0.00 0.00 94
20260506082632 52 177 0.0 0.0 0.00 0.00 0.00 93
20260506082128 52 199 0.0 0.0 0.00 0.00 0.00 92
20260506081626 52 171 0.0 0.0 0.00 0.00 0.00 91
20260506081123 53 175 0.0 0.0 0.00 0.00 0.00 90
20260506080621 53 169 0.0 0.0 0.00 0.00 0.00 90
20260506080117 53 164 0.0 0.0 0.00 0.00 0.00 90
20260506073101 54 152 0.0 0.0 0.00 0.00 0.00 90
20260506072558 53 167 0.0 0.0 0.00 0.00 0.00 91
20260506072056 53 159 0.0 0.0 0.00 0.00 0.00 90
20260506071553 54 168 0.0 0.0 0.00 0.00 0.00 90
20260506071051 53 172 0.0 0.0 0.00 0.00 0.00 90
20260506070548 53 168 0.0 0.0 0.00 0.00 0.00 89
20260506062022 55 177 0.0 0.0 0.00 0.00 0.00 85
20260506061517 55 171 0.0 0.0 0.00 0.00 0.00 85
20260506061015 55 175 0.0 0.0 0.00 0.00 0.00 84
20260506060514 56 177 0.0 0.0 0.00 0.00 0.00 82
20260506050942 59 153 0.0 0.0 0.00 0.00 0.00 72
20260506050440 59 132 0.0 0.0 0.00 0.00 0.00 71
20260506044930 60 134 0.0 0.9 0.00 0.00 0.00 70
20260506044429 60 159 0.9 1.7 0.00 0.00 0.00 69
20260506043925 60 176 0.9 1.7 0.00 0.00 0.00 70
20260506043423 61 137 0.9 4.3 0.00 0.00 0.00 69
20260506042920 61 197 1.7 2.6 0.00 0.00 0.00 69
20260506042420 61 170 0.0 0.9 0.00 0.00 0.00 69
20260506041917 61 162 0.0 0.0 0.00 0.00 0.00 69
20260506041415 62 172 0.9 4.3 0.00 0.00 0.00 69
20260506040912 62 154 0.9 0.9 0.00 0.00 0.00 69
20260506040409 62 155 0.9 1.7 0.00 0.00 0.00 69
20260506035905 62 162 0.0 0.9 0.00 0.00 0.00 69
20260506035403 62 159 0.9 2.6 0.00 0.00 0.00 68
20260506034859 63 169 0.0 0.9 0.00 0.00 0.00 68
20260506034357 63 168 0.0 1.7 0.00 0.00 0.00 68
20260506033854 63 167 0.9 1.7 0.00 0.00 0.00 67
20260506033351 64 99 0.9 2.6 0.00 0.00 0.00 67
20260506032848 64 200 1.7 1.7 0.00 0.00 0.00 66
20260506032344 65 151 0.0 2.6 0.00 0.00 0.00 65
20260506031841 65 166 0.9 2.6 0.00 0.00 0.00 64
20260506031339 66 175 0.9 4.3 0.00 0.00 0.00 64
20260506030836 66 163 0.9 2.6 0.00 0.00 0.00 64
20260506030334 66 177 0.0 4.3 0.00 0.00 0.00 63
20260506025830 66 156 0.9 6.1 0.00 0.00 0.00 63
20260506025327 67 154 0.9 2.6 0.00 0.00 0.00 62
20260506024824 67 119 2.6 2.6 0.00 0.00 0.00 62
20260506024321 68 178 2.6 6.1 0.00 0.00 0.00 62
20260506023817 68 174 1.7 4.3 0.00 0.00 0.00 61
20260506023314 68 190 2.6 4.3 0.00 0.00 0.00 62
20260506022810 68 169 0.9 4.3 0.00 0.00 0.00 62
20260506022309 68 201 2.6 4.3 0.00 0.00 0.00 61
20260506021806 69 161 1.7 2.6 0.00 0.00 0.00 61
20260506021303 69 203 3.5 4.3 0.00 0.00 0.00 60
20260506020759 69 185 0.0 2.6 0.00 0.00 0.00 60
20260506020258 69 144 0.9 6.1 0.00 0.00 0.00 60
20260506015755 69 152 1.7 5.2 0.00 0.00 0.00 59
20260506015252 70 204 2.6 5.2 0.00 0.00 0.00 59
20260506014749 70 189 4.3 5.2 0.00 0.00 0.00 58
20260506014246 70 226 2.6 2.6 0.00 0.00 0.00 58
20260506013743 70 233 1.7 2.6 0.00 0.00 0.00 58
20260506013240 70 182 1.7 6.1 0.00 0.00 0.00 58
20260506012737 70 117 0.9 5.2 0.00 0.00 0.00 58
20260506012234 71 171 0.9 7.8 0.00 0.00 0.00 57
20260506011731 71 189 3.5 7.0 0.00 0.00 0.00 57
20260506011226 72 183 2.6 4.3 0.00 0.00 0.00 54
20260506010725 71 181 1.7 6.1 0.00 0.00 0.00 56
20260506010222 73 146 3.5 5.2 0.00 0.00 0.00 54
20260506005719 73 204 0.9 6.1 0.00 0.00 0.00 54
20260506005216 74 177 4.3 6.1 0.00 0.00 0.00 53
20260506004712 74 193 0.9 4.3 0.00 0.00 0.00 52
20260506004210 74 168 0.9 1.7 0.00 0.00 0.00 52
20260506003705 74 175 2.6 4.3 0.00 0.00 0.00 52
20260506003203 76 233 1.7 2.6 0.00 0.00 0.00 49
20260506002658 74 161 2.6 5.2 0.00 0.00 0.00 51
20260506002155 75 157 2.6 2.6 0.00 0.00 0.00 51
20260506001650 73 109 1.7 7.8 0.00 0.00 0.00 53
20260506001148 75 28 3.5 6.1 0.00 0.00 0.00 52
20260506000645 76 228 1.7 1.7 0.00 0.00 0.00 50
20260506000142 75 182 1.7 4.3 0.00 0.00 0.00 52
20260505235640 76 168 0.9 5.2 0.00 0.00 0.00 51
20260505235137 75 159 0.9 5.2 0.00 0.00 0.00 51
20260505234634 75 139 2.6 5.2 0.00 0.00 0.00 52
20260505234130 75 230 0.0 5.2 0.00 0.00 0.00 53
20260505233628 74 166 0.0 2.6 0.00 0.00 0.00 53
20260505233125 73 163 1.7 7.0 0.00 0.00 0.00 55
20260505232623 77 195 2.6 5.2 0.00 0.00 0.00 51
20260505232120 74 147 2.6 6.1 0.00 0.00 0.00 54
20260505231617 73 174 2.6 6.1 0.00 0.00 0.00 55
20260505231116 73 197 1.7 6.1 0.00 0.00 0.00 55
20260505230614 74 180 0.9 1.7 0.00 0.00 0.00 54
20260505230110 74 192 2.6 6.1 0.00 0.00 0.00 55
20260505225606 73 163 4.3 6.1 0.00 0.00 0.00 57
20260505225103 73 20 2.6 7.8 0.00 0.00 0.00 57
20260505224559 72 130 3.5 5.2 0.00 0.00 0.00 56
20260505224056 73 123 4.3 5.2 0.00 0.00 0.00 57
20260505223554 72 147 2.6 6.1 0.00 0.00 0.00 58
20260505223049 71 93 1.7 7.8 0.00 0.00 0.00 60
20260505222546 71 151 1.7 7.8 0.00 0.00 0.00 60
20260505222043 70 185 1.7 7.0 0.00 0.00 0.00 61
20260505221540 71 164 3.5 7.8 0.00 0.00 0.00 60
20260505221036 71 156 0.9 6.1 0.00 0.00 0.00 61
20260505220533 70 198 4.3 5.2 0.00 0.00 0.00 59
20260505220031 70 109 0.9 7.0 0.00 0.00 0.00 63
20260505215529 69 97 0.0 6.1 0.00 0.00 0.00 62
20260505215026 69 207 2.6 7.0 0.00 0.00 0.00 62
20260505214524 69 93 2.6 6.1 0.00 0.00 0.00 61
20260505214021 69 148 1.7 5.2 0.00 0.00 0.00 64
20260505213519 68 212 3.5 5.2 0.00 0.00 0.00 64
20260505213015 68 124 0.9 7.0 0.00 0.00 0.00 65
20260505212511 68 135 3.5 7.8 0.00 0.00 0.00 66
20260505212009 69 145 3.5 8.7 0.00 0.00 0.00 65
20260505211506 68 164 1.7 6.1 0.00 0.00 0.00 65
20260505211002 67 72 4.3 8.7 0.00 0.00 0.00 65
20260505210459 66 140 6.1 11.3 0.00 0.00 0.00 67
20260505205956 66 147 7.8 8.7 0.00 0.00 0.00 66
20260505205454 66 121 4.3 7.8 0.00 0.00 0.00 67
20260505204950 66 180 0.9 4.3 0.00 0.00 0.00 66
20260505204449 67 162 3.5 6.1 0.00 0.00 0.00 66
20260505203946 65 163 2.6 7.0 0.00 0.00 0.00 69
20260505203442 64 133 2.6 9.6 0.00 0.00 0.00 70
20260505202938 65 162 5.2 7.0 0.00 0.00 0.00 68
20260505202435 67 120 6.1 9.6 0.00 0.00 0.00 66
20260505201931 64 155 3.5 6.1 0.00 0.00 0.00 71
20260505201428 64 131 4.3 6.1 0.00 0.00 0.00 70
20260505200926 64 49 0.9 7.8 0.00 0.00 0.00 72
20260505200423 64 77 4.3 6.1 0.00 0.00 0.00 69
20260505195919 64 176 2.6 5.2 0.00 0.00 0.00 69
20260505195416 64 139 1.7 9.6 0.00 0.00 0.00 69
20260505194914 66 251 0.9 7.0 0.00 0.00 0.00 68
20260505194411 64 175 2.6 6.1 0.00 0.00 0.00 70
20260505193911 63 134 0.9 11.3 0.00 0.00 0.00 73
20260505193410 64 125 4.3 6.1 0.00 0.00 0.00 69
20260505192907 64 179 2.6 6.1 0.00 0.00 0.00 72
20260505192405 64 188 3.5 6.1 0.00 0.00 0.00 71
20260505191902 64 138 1.7 7.8 0.00 0.00 0.00 71
20260505191401 64 125 2.6 7.0 0.00 0.00 0.00 70
20260505190857 65 166 0.9 4.3 0.00 0.00 0.00 70
20260505190353 64 115 3.5 7.0 0.00 0.00 0.00 69
20260505185848 65 150 5.2 9.6 0.00 0.00 0.00 68
20260505185345 65 146 3.5 7.0 0.00 0.00 0.00 68
20260505184841 65 150 4.3 8.7 0.00 0.00 0.00 68
20260505184338 65 155 4.3 7.0 0.00 0.00 0.00 67
20260505183836 64 115 4.3 6.1 0.00 0.00 0.00 68
20260505183332 65 158 2.6 6.1 0.00 0.00 0.00 68
20260505182829 66 214 2.6 4.3 0.00 0.00 0.00 66
20260505182326 64 158 2.6 5.2 0.00 0.00 0.00 68
20260505181823 63 71 3.5 6.1 0.00 0.00 0.00 71
20260505181320 63 118 2.6 6.1 0.00 0.00 0.00 71
20260505180816 63 181 2.6 6.1 0.00 0.00 0.00 70
20260505180313 64 162 2.6 6.1 0.00 0.00 0.00 70
20260505175809 63 98 2.6 5.2 0.00 0.00 0.00 71
20260505175306 62 144 2.6 7.0 0.00 0.00 0.00 72
20260505174802 64 173 4.3 7.8 0.00 0.00 0.00 70
20260505174300 63 143 0.9 2.6 0.00 0.00 0.00 71
20260505173756 63 89 5.2 9.6 0.00 0.00 0.00 72
20260505173252 62 167 4.3 6.1 0.00 0.00 0.00 72
20260505172749 63 170 0.9 2.6 0.00 0.00 0.00 71
20260505172246 61 169 0.9 7.0 0.00 0.00 0.00 74
20260505171746 62 136 4.3 7.0 0.00 0.00 0.00 73
20260505171243 62 85 3.5 7.0 0.00 0.00 0.00 73
20260505170739 61 146 4.3 7.0 0.00 0.00 0.00 74
20260505170237 62 146 2.6 5.2 0.00 0.00 0.00 71
20260505165732 61 176 2.6 7.0 0.00 0.00 0.00 75
20260505165228 61 118 1.7 5.2 0.00 0.00 0.00 74
20260505164724 60 71 3.5 7.0 0.00 0.00 0.00 75
20260505164221 61 111 1.7 7.0 0.00 0.00 0.00 74
20260505163719 60 113 5.2 7.0 0.00 0.00 0.00 75
20260505163217 60 159 0.9 6.1 0.00 0.00 0.00 76
20260505162714 60 113 2.6 6.1 0.00 0.00 0.00 76
20260505162211 61 153 0.9 4.3 0.00 0.00 0.00 74
20260505161708 61 190 3.5 4.3 0.00 0.00 0.00 74
20260505161206 61 130 1.7 6.1 0.00 0.00 0.00 75
20260505160703 61 129 4.3 5.2 0.00 0.00 0.00 74
20260505160201 61 154 0.0 2.6 0.00 0.00 0.00 74
20260505153140 59 152 0.9 1.7 0.00 0.00 0.00 79
20260505152636 58 157 2.6 2.6 0.00 0.00 0.00 79
20260505152132 59 139 0.9 1.7 0.00 0.00 0.00 78
20260505151628 59 148 0.0 1.7 0.00 0.00 0.00 78
20260505151125 58 132 0.9 1.7 0.00 0.00 0.00 80
20260505150621 58 200 0.9 2.6 0.00 0.00 0.00 80
20260505150119 58 157 0.0 1.7 0.00 0.00 0.00 80
20260505140547 52 155 0.0 0.0 0.00 0.00 0.00 91
20260505125000 50 178 0.0 0.0 0.00 0.00 0.00 93
20260505124457 50 178 0.0 0.0 0.00 0.00 0.00 93
20260505123953 50 177 0.0 0.0 0.00 0.00 0.00 93
20260505123450 50 178 0.0 0.0 0.00 0.00 0.00 93
20260505122946 50 178 0.0 0.0 0.00 0.00 0.00 93
20260505122443 50 174 0.0 0.0 0.00 0.00 0.00 92
20260505121940 50 179 0.0 0.0 0.00 0.00 0.00 92
20260505121437 50 195 0.0 0.0 0.00 0.00 0.00 92
20260505120933 50 172 0.0 0.0 0.00 0.00 0.00 92
20260505120430 50 168 0.0 0.0 0.00 0.00 0.00 92
20260505115928 50 167 0.0 0.0 0.00 0.00 0.00 92
20260505115425 50 163 0.0 0.0 0.00 0.00 0.00 92
20260505114923 50 168 0.0 0.0 0.00 0.00 0.00 92
20260505114419 50 176 0.0 0.0 0.00 0.00 0.00 91
20260505113915 50 179 0.0 0.0 0.00 0.00 0.00 91
20260505113413 51 201 0.0 0.0 0.00 0.00 0.00 91
20260505112908 51 170 0.0 0.0 0.00 0.00 0.00 91
20260505112406 51 173 0.0 0.0 0.00 0.00 0.00 91
20260505111902 51 176 0.0 0.0 0.00 0.00 0.00 91
20260505111357 51 174 0.0 0.0 0.00 0.00 0.00 90
20260505110853 51 174 0.0 0.0 0.00 0.00 0.00 90
20260505110351 51 182 0.0 0.0 0.00 0.00 0.00 90